DW5707 Weather Reports


time (UTC)temp
C
wind
direction
speed
KPH
gust
KPH
rain 1hr
cm
rain 24hr
cm
rain mn
cm
humidity
%
barometer
mb
20260504050410 7 292 0.0 0.0 0.00 0.00 0.00 63 1015.5
20260504045911 7 293 0.0 0.0 0.00 0.00 0.00 62 1015.6
20260504045407 7 293 0.0 0.0 0.00 0.00 0.00 62 1015.6
20260504044907 7 287 0.0 0.0 0.00 0.00 0.00 62 1015.6
20260504044408 7 290 0.0 1.6 0.00 0.00 0.00 62 1015.6
20260504043901 7 290 0.0 3.2 0.00 0.00 0.00 61 1015.5
20260504043357 7 290 0.0 3.2 0.00 0.00 0.00 61 1015.5
20260504042849 7 289 0.0 1.6 0.00 0.00 0.00 61 1015.5
20260504041844 8 289 0.0 3.2 0.00 0.00 0.00 60 1015.5
20260504041343 8 289 0.0 3.2 0.00 0.00 0.00 60 1015.6
20260504040841 8 290 0.0 3.2 0.00 0.00 0.00 60 1015.5
20260504040343 8 232 0.0 0.0 0.00 0.00 0.00 61 1015.4
20260504035838 8 232 0.0 0.0 0.00 0.00 0.00 61 1015.3
20260504035340 8 233 0.0 0.0 0.00 0.00 0.00 60 1015.3
20260504034840 8 233 0.0 0.0 0.00 0.00 0.00 60 1015.2
20260504034340 8 233 0.0 0.0 0.00 0.00 0.00 60 1015.2
20260504033839 8 233 0.0 0.0 0.00 0.00 0.00 60 1015.2
20260504033339 8 231 0.0 0.0 0.00 0.00 0.00 60 1015.2
20260504032840 8 231 0.0 0.0 0.00 0.00 0.00 61 1015.1
20260504032341 8 231 0.0 0.0 0.00 0.00 0.00 60 1015.2
20260504031840 8 231 0.0 0.0 0.00 0.00 0.00 60 1015.1
20260504031341 8 231 0.0 0.0 0.00 0.00 0.00 60 1015.1
20260504030844 8 231 0.0 0.0 0.00 0.00 0.00 60 1015.1
20260504030344 8 231 0.0 0.0 0.00 0.00 0.00 61 1015.0
20260504025844 8 231 0.0 0.0 0.00 0.00 0.00 61 1015.1
20260504025344 8 231 0.0 0.0 0.00 0.00 0.00 60 1015.1
20260504024842 8 231 0.0 0.0 0.00 0.00 0.00 60 1015.1
20260504023345 7 298 0.0 0.0 0.00 0.00 0.00 62 1015.0
20260504022843 7 298 0.0 0.0 0.00 0.00 0.00 61 1014.9
20260504022342 7 298 0.0 0.0 0.00 0.00 0.00 64 1014.9
20260504020342 8 298 0.0 0.0 0.00 0.00 0.00 60 1015.0
20260504015840 8 298 0.0 0.0 0.00 0.00 0.00 60 1015.0
20260504014839 8 298 0.0 0.0 0.00 0.00 0.00 61 1014.9
20260504014339 8 298 0.0 0.0 0.00 0.00 0.00 61 1014.9
20260504013840 8 298 0.0 0.0 0.00 0.00 0.00 60 1014.9
20260504013338 8 298 0.0 0.0 0.00 0.00 0.00 61 1014.9
20260504012832 8 298 0.0 0.0 0.00 0.00 0.00 62 1014.8
20260504012331 8 298 0.0 0.0 0.00 0.00 0.00 61 1014.7
20260504011829 8 298 0.0 0.0 0.00 0.00 0.00 63 1014.7
20260504011329 8 298 0.0 0.0 0.00 0.00 0.00 62 1014.6
20260504010827 8 298 0.0 0.0 0.00 0.00 0.00 59 1014.5
20260504005825 8 298 0.0 0.0 0.00 0.00 0.00 59 1014.6
20260504005323 9 298 0.0 0.0 0.00 0.00 0.00 62 1014.5
20260504004822 10 298 0.0 0.0 0.00 0.00 0.00 62 1014.5
20260504004322 10 298 0.0 0.0 0.00 0.00 0.00 56 1014.5
20260504003819 10 298 0.0 0.0 0.00 0.00 0.00 56 1014.4
20260504003319 10 284 0.0 0.0 0.00 0.00 0.00 54 1014.4
20260504002820 10 292 0.0 0.0 0.00 0.00 0.00 53 1014.3
20260504002318 11 294 0.0 0.0 0.00 0.00 0.00 51 1014.3
20260504001315 11 295 0.0 0.0 0.00 0.00 0.00 50 1014.2
20260504000817 11 296 0.0 1.6 0.00 0.00 0.00 50 1014.2
20260504000310 11 296 0.0 4.8 0.00 0.00 0.00 49 1014.2
20260503235811 11 296 1.6 4.8 0.00 0.00 0.00 50 1014.1
20260503235311 12 274 1.6 4.8 0.00 0.00 0.00 50 1014.1
20260503234812 12 334 3.2 8.0 0.00 0.00 0.00 50 1014.1
20260503234310 12 335 4.8 8.0 0.00 0.00 0.00 49 1013.9
20260503233806 12 21 3.2 6.4 0.00 0.00 0.00 49 1013.8
20260503233306 12 345 3.2 6.4 0.00 0.00 0.00 48 1013.8
20260503232804 12 345 4.8 12.9 0.00 0.00 0.00 48 1013.7
20260503232305 13 335 6.4 12.9 0.00 0.00 0.00 48 1013.7
20260503231801 13 329 4.8 9.7 0.00 0.00 0.00 47 1013.7
20260503231301 13 294 4.8 12.9 0.00 0.00 0.00 45 1013.7
20260503230800 13 283 4.8 12.9 0.00 0.00 0.00 45 1013.7
20260503230301 13 302 8.0 16.1 0.00 0.00 0.00 48 1013.7
20260503225802 13 306 9.7 16.1 0.00 0.00 0.00 47 1013.7
20260503224752 13 6 9.7 19.3 0.00 0.00 0.00 47 1013.8
20260503224249 13 336 9.7 19.3 0.00 0.00 0.00 47 1013.9
20260503223749 13 317 6.4 14.5 0.00 0.00 0.00 48 1013.8
20260503223249 13 287 6.4 14.5 0.00 0.00 0.00 45 1013.8
20260503222749 13 340 6.4 14.5 0.00 0.00 0.00 46 1013.7
20260503222251 13 296 4.8 14.5 0.00 0.00 0.00 44 1013.7
20260503221749 13 345 6.4 16.1 0.00 0.00 0.00 46 1013.7
20260503221246 13 259 11.3 22.5 0.00 0.00 0.00 44 1013.7
20260503220748 13 345 11.3 22.5 0.00 0.00 0.00 47 1013.7
20260503215745 13 340 14.5 22.5 0.00 0.00 0.00 45 1013.8
20260503215244 14 340 9.7 19.3 0.00 0.00 0.00 46 1013.8
20260503214749 14 340 9.7 17.7 0.00 0.00 0.00 45 1013.8
20260503214246 14 340 11.3 25.7 0.00 0.00 0.00 44 1013.7
20260503213743 14 340 11.3 25.7 0.00 0.00 0.00 43 1013.7
20260503213243 14 303 11.3 24.1 0.00 0.00 0.00 44 1013.6
20260503212745 14 340 11.3 24.1 0.00 0.00 0.00 43 1013.7
20260503212242 15 323 9.7 19.3 0.00 0.00 0.00 40 1013.7
20260503211739 15 2 8.0 19.3 0.00 0.00 0.00 45 1013.6
20260503211238 15 314 8.0 17.7 0.00 0.00 0.00 44 1013.7
20260503210737 15 287 11.3 25.7 0.00 0.00 0.00 42 1013.7
20260503205738 15 336 12.9 24.1 0.00 0.00 0.00 44 1013.7
20260503205237 15 345 9.7 19.3 0.00 0.00 0.00 43 1013.6
20260503204738 15 336 14.5 29.0 0.00 0.00 0.00 43 1013.6
20260503204238 14 336 17.7 29.0 0.00 0.00 0.00 42 1013.7
20260503203736 14 345 12.9 27.4 0.00 0.00 0.00 43 1013.6
20260503203236 14 345 9.7 16.1 0.00 0.00 0.00 41 1013.6
20260503202736 14 345 11.3 27.4 0.00 0.00 0.00 40 1013.7
20260503202237 15 308 17.7 32.2 0.00 0.00 0.00 45 1013.7
20260503201737 15 345 16.1 32.2 0.00 0.00 0.00 45 1013.8
20260503201232 15 345 16.1 24.1 0.00 0.00 0.00 45 1013.8
20260503200726 14 323 16.1 25.7 0.00 0.00 0.00 44 1013.9
20260503200226 14 345 16.1 29.0 0.00 0.00 0.00 44 1014.0
20260503195727 14 335 16.1 29.0 0.00 0.00 0.00 43 1014.0
20260503195226 14 335 16.1 27.4 0.00 0.00 0.00 45 1014.1
20260503194726 14 9 12.9 27.4 0.00 0.00 0.00 47 1014.2
20260503194227 13 316 9.7 25.7 0.00 0.00 0.00 44 1014.2
20260503193727 13 250 12.9 30.6 0.00 0.00 0.00 43 1014.3
20260503193228 14 354 16.1 30.6 0.00 0.00 0.00 43 1014.4
20260503192228 14 345 16.1 30.6 0.00 0.00 0.00 47 1014.4
20260503185722 14 303 11.3 25.7 0.00 0.00 0.00 49 1014.7
20260503185215 13 291 11.3 24.1 0.00 0.00 0.00 50 1014.7
20260503184713 14 345 11.3 24.1 0.00 0.00 0.00 45 1014.7
20260503184212 14 325 8.0 20.9 0.00 0.00 0.00 46 1014.8
20260503182712 13 345 11.3 24.1 0.00 0.00 0.00 51 1015.0
20260503182212 13 252 11.3 24.1 0.00 0.00 0.00 49 1014.9
20260503181714 13 345 9.7 24.1 0.00 0.00 0.00 45 1015.0
20260503181212 12 240 11.3 22.5 0.00 0.00 0.00 53 1015.1
20260503180212 12 314 12.9 24.1 0.00 0.00 0.00 49 1015.0
20260503175714 13 296 12.9 24.1 0.00 0.00 0.00 52 1015.1
20260503175213 13 334 9.7 29.0 0.00 0.00 0.00 48 1015.1
20260503174714 13 345 9.7 29.0 0.00 0.00 0.00 50 1015.1
20260503174216 12 345 11.3 22.5 0.00 0.00 0.00 53 1015.1
20260503173710 12 335 9.7 22.5 0.00 0.00 0.00 50 1015.2
20260503173205 12 345 11.3 27.4 0.00 0.00 0.00 46 1015.2
20260503172148 12 345 11.3 22.5 0.00 0.00 0.00 52 1015.4
20260503171646 11 318 12.9 25.7 0.00 0.00 0.00 51 1015.5
20260503171144 11 345 16.1 27.4 0.00 0.00 0.00 50 1015.4
20260503170644 12 13 16.1 27.4 0.00 0.00 0.00 49 1015.6
20260503170152 12 345 16.1 33.8 0.00 0.00 0.00 50 1015.4
20260503160133 11 284 17.7 30.6 0.00 0.00 0.00 54 1016.2
20260503150133 10 10 16.1 32.2 0.00 0.00 0.00 55 1016.2
20260503140133 8 358 19.3 30.6 0.00 0.00 0.00 59 1016.2
20260503131133 6 340 12.9 25.7 0.00 0.00 0.00 68 1016.2
20260503130133 6 345 14.5 27.4 0.00 0.00 0.00 69 1016.3
20260503120128 4 345 14.5 24.1 0.00 0.00 0.00 74 1015.9
20260503110621 2 345 11.3 20.9 0.00 0.00 0.00 77 1015.3
20260503110122 2 293 12.9 19.3 0.00 0.00 0.00 78 1015.2
20260503100124 2 323 9.7 17.7 0.00 0.00 0.00 78 1014.2
20260503090123 3 345 9.7 16.1 0.00 0.00 0.00 78 1013.8
20260503081622 2 345 6.4 12.9 0.00 0.00 0.00 82 1013.5
20260503081123 2 325 4.8 8.0 0.00 0.00 0.00 82 1013.5
20260503080126 3 328 4.8 8.0 0.00 0.00 0.00 82 1013.5
20260503072621 3 326 8.0 14.5 0.00 0.00 0.00 81 1013.1
20260503072122 3 345 8.0 14.5 0.00 0.00 0.00 81 1013.0
20260503071634 3 340 8.0 12.9 0.00 0.00 0.00 81 1013.1
20260503071120 3 340 8.0 12.9 0.00 0.00 0.00 81 1013.1
20260503070622 3 340 11.3 16.1 0.00 0.00 0.00 81 1013.0
20260503070117 3 340 12.9 17.7 0.00 0.00 0.00 80 1013.0
20260503060110 4 335 12.9 17.7 0.00 0.00 0.00 81 1013.0
20260503055116 4 314 14.5 20.9 0.00 0.00 0.00 80 1013.1
20260503054614 4 323 14.5 20.9 0.00 0.00 0.00 81 1013.1
20260503054110 4 326 11.3 17.7 0.00 0.00 0.00 82 1013.1
20260503053610 4 316 9.7 17.7 0.00 0.00 0.00 82 1013.3